Content
SEND FEEDBACK

Daily
Averages
Monthly
Summary
United States of America

ST. LOUIS - SAINT LOUIS UNIVERSITY, MISSOURI


Home > North America > United States > Missouri
Elevation: 177 meters     Latitude: 38 38N     Longitude: 090 14W

WEATHER
 
SELECT A DAY
Number of Records: 188,419;   Date Range: 1/1/95 - 9/29/14
 
SHARE

PRINT THIS DATA

[ ← Previous Day ]
WEATHER ALMANAC - 17 APRIL, 2013
[ Next Day → ]
[ °F ]   °C
Weather ElementAverageHighLow
Temperature17.3 °C27.8 °C (4:53 pm)10 °C (1:53 am)
Dewpoint13.6 °C19.4 °C (2:53 pm)7.8 °C (1:53 am)
Humidity80.4 %96 % (5:53 am)60 % (4:53 pm)
Barometer1014.6 hPa1020 hPa (1:53 am)1005.8 hPa (10:53 pm)
Wind Speed14.2 km/h25.9 km/h (5:53 pm)
Wind Gust48.1 km/h (10:53 pm)
Weather ElementAverage
Visibility10.1 km
Wind DirectionESE (123.1 °)

Weather ElementTotal
Precipitation0.51 mm
Cooling Degree Days0.6 (Base 18.3)
Growing Degree Days8.9 (Base 10)
Averaged from 26 records on 17 April, 2013
WEATHER CONDITIONS BREAKOUT
WIND DIRECTION BREAKOUT
WEATHER BY HOUR - 17 APRIL, 2013
[ °F ]   °C
Local TimeTemperatureDewpointHumidityBarometerVisibilityWind DirectionWind SpeedGust SpeedPrecipitationEventsConditions
1:53 AM10 °C7.8 °C86 %1020 hPa16.1 kmNNE (30°)7.4 km/hOvercast
2:53 AM10 °C7.8 °C86 %1019.6 hPa16.1 kmNNE (30°)7.4 km/hOvercast
3:53 AM10.6 °C8.3 °C86 %1019.3 hPa12.9 kmENE (60°)13 km/hOvercast
4:44 AM10 °C9 °C94 %1019 hPa4 kmENE (70°)7.4 km/hOvercast
4:53 AM10 °C8.9 °C93 %1019 hPa4 kmENE (60°)7.4 km/hOvercast
5:32 AM10 °C9 °C94 %1017.9 hPa4.8 kmENE (60°)9.3 km/h0.25 mmOvercast
5:53 AM10 °C9.4 °C96 %1018.3 hPa6.4 kmESE (110°)5.6 km/h0.25 mmOvercast
6:53 AM10.6 °C9.4 °C92 %1017.9 hPa4.8 kmESE (110°)7.4 km/hOvercast
7:21 AM11 °C9 °C88 %1018.6 hPa4 kmEast (90°)7.4 km/hOvercast
7:53 AM11.1 °C10 °C93 %1018.6 hPa2.9 kmESE (110°)5.6 km/hOvercast
8:53 AM12.2 °C11.1 °C93 %1018.3 hPa3.2 kmESE (110°)11.1 km/hOvercast
9:53 AM12.8 °C11.7 °C93 %1017.6 hPa4 kmSSE (150°)11.1 km/hOvercast
10:13 AM14 °C12 °C88 %1017.3 hPa4.8 kmSE (140°)13 km/hOvercast
10:53 AM15.6 °C13.9 °C90 %1016.9 hPa4.8 kmSSE (150°)16.7 km/hOvercast
11:53 AM18.9 °C16.1 °C84 %1015.2 hPa6.4 kmSSE (150°)16.7 km/hHaze
12:30 PM21 °C17 °C78 %1014.6 hPa9.7 kmSSE (160°)13 km/h27.8 km/hHaze
12:53 PM21.7 °C17.8 °C78 %1014.6 hPa11.3 kmSSE (160°)14.8 km/h25.9 km/hScattered Clouds
1:53 PM24.4 °C18.9 °C71 %1012.9 hPa14.5 kmSouth (180°)20.4 km/h35.2 km/hClear
2:53 PM26.7 °C19.4 °C64 %1011.5 hPa16.1 kmSSE (160°)22.2 km/h31.5 km/hClear
4:53 PM27.8 °C19.4 °C60 %1009.5 hPa16.1 kmSSE (150°)22.2 km/h35.2 km/hPartly Cloudy
5:53 PM27.2 °C18.9 °C60 %1008.1 hPa16.1 kmSSE (150°)25.9 km/h35.2 km/hPartly Cloudy
6:53 PM26.1 °C17.8 °C60 %1007.1 hPa16.1 kmSSE (160°)14.8 km/h29.6 km/hClear
7:53 PM25 °C17.8 °C64 %1006.8 hPa16.1 kmSSE (150°)24.1 km/h35.2 km/hClear
8:53 PM24.4 °C17.8 °C67 %1006.8 hPa16.1 kmSSE (160°)18.5 km/hClear
9:53 PM24.4 °C18.3 °C69 %1006.4 hPa16.1 kmSouth (170°)18.5 km/h31.5 km/hClear
10:53 PM25 °C17.8 °C64 %1005.8 hPa16.1 kmSouth (170°)25.9 km/h48.1 km/hClear
Hourly data recorded from KCPS, located 0 kilometers away from St. Louis - Saint Louis University, Missouri







STORIES FROM OUR PARTNERS